Location: Jastrzębia Góra
(54.8312°N, 18.3037°E)
Time: 16:20:29
(UTC+01:00)

ISS - Pass Details

Date: 25 January 2019
Orbit: 403 x 411 km, 51.6° (Epoch: 20 February)

Event Time Altitude Azimuth Distance (km) Brightness Sun altitude
Rises 18:28:48 0° 222° (SW) 2,330 0.8 -19.6°
Reaches altitude 10° 18:31:08 10° 207° (SSW) 1,474 -0.6 -19.9°
Enters shadow 18:32:58 21° 176° (S) 1,001 -1.9 -20.2°
